#timestamp,LO_Frequency,Hit,StdDev 
1516726815.9,286046999.9,N
1516726835.7,286047000.9,N
1516726855.5,286047000.2,N
1516726875.4,286047001.6,N
1516726895.2,286047002.0,N
1516726915.1,286047002.6,N
1516726916.0,286047002.6,N
1516726935.8,286047002.2,N
1516726955.6,286047001.9,N
1516726975.5,286047002.7,N
1516726995.3,286047003.4,N
1516727015.2,286047003.6,N
1516727035.9,286047005.4,Y
1516727055.7,286047004.7,P
1516727075.6,286047004.7,N
1516727095.4,286047006.9,P
1516727115.3,286047005.8,N
1516727135.1,286047005.8,N
1516727136.0,286047005.8,Y
1516727155.8,286046999.2,P
1516727175.7,286046996.6,N
1516727195.5,286046996.8,N
1516727215.3,286046998.1,N
1516727235.2,286046997.0,N
1516727255.0,286046996.7,N
1516727255.9,286046996.7,N
1516727275.8,286046997.8,N
1516727295.6,286046997.4,N
1516727315.4,286046997.3,N
1516727335.3,286046995.4,N
1516727355.1,286046997.7,N
1516727375.9,286046999.2,N
1516727395.7,286046997.0,N
1516727415.5,286046999.6,N
1516727435.4,286046996.9,N
1516727455.2,286046999.1,N
1516727475.0,286046998.6,N
1516727475.9,286046998.6,N
1516727495.8,286047001.1,N
1516727515.6,286047000.8,N
1516727535.5,286047001.1,N
1516727555.3,286046998.3,N
1516727575.1,286046996.6,N
1516727595.9,286046999.2,N
1516727615.7,286046998.1,N
1516727635.5,286047000.8,N
1516727655.4,286046998.8,N
1516727675.2,286046999.4,N
1516727695.1,286046999.1,N
1516727696.0,286046999.1,N
1516727715.8,286046996.9,N
1516727735.6,286046998.4,N
1516727755.5,286046999.0,N
1516727775.3,286046999.3,N
1516727795.1,286046998.9,N
1516727815.9,286046999.2,N
1516727835.7,286046996.6,N
1516727855.6,286046998.9,N
1516727875.4,286046999.0,N
1516727895.2,286046999.5,N
1516727915.1,286046997.8,N
1516727916.0,286046997.8,N
1516727935.8,286046998.0,N
1516727955.7,286046995.0,Y
1516727975.5,286046999.0,P
1516727995.3,286047001.1,P
1516728015.2,286047000.9,N
1516728035.0,286046999.8,N
1516728035.9,286046999.8,N
1516728055.8,286047002.4,N
1516728075.6,286047002.7,N
1516728095.4,286047002.1,N
1516728115.3,286047000.3,N
1516728135.1,286047002.8,N
1516728155.8,286047001.6,N
1516728175.7,286047001.5,N
1516728195.5,286047004.4,Y
1516728215.4,286047001.4,P
1516728235.2,286047002.1,P
1516728255.0,286047002.5,P
1516728255.9,286047002.5,Y
1516728275.8,286047002.8,P
1516728295.6,286047004.2,P
1516728315.4,286047001.8,N
1516728335.3,286047003.7,Y
1516728355.1,286047002.8,P
1516728375.9,286047002.0,P
1516728395.7,286047001.6,P
1516728415.5,286047001.9,Y
1516728435.4,286046998.1,P
1516728455.2,286046999.3,N
1516728475.1,286046996.7,N
1516728476.0,286046996.7,N
1516728495.8,286046995.3,N
1516728515.6,286046997.4,N
1516728535.5,286046999.6,N
1516728555.3,286046997.6,N
1516728575.1,286046997.2,N
1516728595.9,286046997.4,N
1516728615.7,286046996.6,N
1516728635.6,286046999.4,N
1516728655.4,286046999.2,N
1516728675.2,286046996.9,N
1516728695.1,286046999.3,N
1516728696.0,286046999.3,N
1516728715.8,286046997.8,N
1516728735.7,286046997.7,N
1516728755.5,286046997.2,N
1516728775.3,286046997.1,N
1516728795.2,286046996.6,N
1516728815.9,286047001.1,N
1516728835.7,286047001.1,N
1516728855.6,286047002.6,N
1516728875.4,286047001.3,N
1516728895.3,286047004.4,N
1516728915.1,286047004.0,N
1516728916.0,286047004.0,N
1516728935.8,286047003.5,N
1516728955.7,286047005.9,N
1516728975.5,286047003.8,N
1516728995.3,286047004.2,N
1516729015.2,286047004.0,N
1516729035.0,286047003.8,N
1516729035.9,286047003.8,N
1516729055.8,286047005.8,N
1516729075.6,286047004.5,N
1516729095.4,286047004.6,N
1516729115.3,286047004.9,N
1516729135.1,286047006.8,N
1516729155.8,286047008.9,N
1516729175.7,286047006.2,N
1516729195.5,286047006.6,N
1516729215.4,286047008.9,N
1516729235.2,286047008.0,N
1516729255.0,286047008.7,N
1516729255.9,286047008.7,N
1516729275.8,286047006.4,N
1516729295.6,286047007.2,N
1516729315.4,286047007.2,N
1516729335.3,286047004.8,N
1516729355.1,286047007.3,Y
1516729375.9,286046998.7,P
1516729395.7,286047002.8,N
1516729415.5,286046999.8,N
1516729435.4,286046999.7,N
1516729455.2,286047001.7,N
1516729475.1,286047005.7,N
1516729476.0,286047005.7,N
1516729495.8,286047004.7,N
1516729515.6,286047006.0,N
1516729535.5,286047005.6,N
1516729555.3,286047004.7,N
1516729575.1,286047005.4,N
1516729595.9,286047004.8,N
1516729615.7,286047005.7,N
1516729635.6,286047003.2,N
1516729655.4,286047003.7,N
1516729675.2,286047003.1,N
1516729695.1,286047006.0,N
1516729696.0,286047006.0,N
1516729715.8,286047007.5,Y
1516729735.6,286046999.8,P
1516729755.5,286047000.0,N
1516729775.3,286047002.2,N
1516729795.2,286047000.1,N
1516729815.9,286047000.8,N
1516729835.7,286047000.0,N
1516729855.6,286047000.2,N
1516729875.4,286047002.5,N
1516729895.2,286047002.1,N
1516729915.1,286047002.3,N
1516729916.0,286047002.3,N
1516729935.8,286047004.1,Y
1516729955.7,286047000.5,P
1516729975.5,286046999.7,N
1516729995.3,286047002.2,P
1516730015.2,286046999.7,N
1516730035.0,286047001.5,N
1516730035.9,286047001.5,N
1516730055.8,286047001.5,N
1516730075.6,286047002.4,N
1516730095.4,286047000.4,N
1516730115.3,286046998.9,N
1516730135.1,286046999.3,N
1516730155.8,286046999.0,N
1516730175.7,286046996.8,N
1516730195.5,286046997.1,N
1516730215.4,286046995.1,N
1516730235.2,286046996.2,N
1516730255.0,286046995.1,N
1516730255.9,286046995.1,N
1516730275.8,286046995.2,N
1516730295.6,286046998.0,N
1516730315.4,286046997.1,N
1516730335.3,286046997.8,N
1516730355.1,286046998.4,N
1516730375.9,286046998.3,N
1516730395.7,286046998.2,N
